Flag for Austria Weather past 2 weeks in Krems, Lower Austria, Austria

Now
38 °F

Chilly.


Feels Like: 38 °F
Forecast: 35 / 55 °F
Wind: 1 mph from Northeast

Location: Retz

Current Time: Oct 25, 2014 at 3:49:07 AM

Latest Report: Oct 25, 2014 at 3:00 AM


Visibility: N/A

Pressure: 30.23 "Hg

Humidity: 91%

Dew point: 36 °F

Location of KremsLocation

Historic Weather in Krems — Graph

°F

Krems temperature yesterday

Maximum temperature yesterday: 53 °F (at 2:00 PM)
Minimum temperature yesterday: 40 °F (at 11:00 PM)
Average temperature yesterday: 47 °F

Past Weeks' High & Low Weather Summary

 TemperatureHumidityPressure
High70 °F (Oct 20, 2:00 PM)100% (Oct 13, 9:00 AM)30.30 "Hg (Oct 13, 9:00 AM)
Low39 °F (Oct 25, 1:00 AM)57% (Oct 16, 3:00 PM)29.57 "Hg (Oct 22, 1:00 AM)
Average55 °F86%29.95 "Hg
* Reported Oct 10 2:00 AM — Oct 25 2:00 AM, Krems, Weather by CustomWeather, © 2014

Note: Actual official high and low records may vary slightly from our data, if they occured in-between our weather recording intervals... More about our weather records

Advertising

Krems weather history for previous 24 hours

 ConditionsComfort  
Time TempWeatherWind HumidityBarometerVisibility
2:00 AM
Oct 25
N/APassing clouds.100 mphN/AN/A1 mi
1:00 AM39 °FChilly.3 mph86%30.24 "HgN/A
12:00 AM40 °FChilly.3 mph85%30.24 "HgN/A
11:00 PM
Oct 24
40 °FQuite cool.3 mph85%30.24 "HgN/A
10:00 PM41 °FQuite cool.5 mph85%30.23 "HgN/A
9:00 PM42 °FQuite cool.3 mph82%30.20 "HgN/A
8:00 PM44 °FOvercast.5 mph81%30.19 "Hg6 mi
7:00 PM46 °FCool.3 mph77%30.17 "HgN/A
6:00 PM49 °FCool.5 mph72%30.14 "HgN/A
5:00 PM50 °FCool.5 mph69%30.14 "HgN/A
4:00 PM51 °FCool.6 mph68%30.14 "HgN/A
3:00 PM52 °FCool.6 mph66%30.14 "HgN/A
2:00 PM53 °FScattered clouds.7 mph65%30.14 "Hg14 mi
1:00 PM51 °FCool.5 mph71%30.16 "HgN/A
12:00 PM50 °FCool.6 mph74%30.18 "HgN/A
11:00 AM48 °FCool.6 mph75%30.18 "HgN/A
10:00 AM47 °FCool.5 mph79%30.18 "HgN/A
9:00 AM46 °FCool.6 mph80%30.16 "HgN/A
8:00 AM46 °FPartly sunny.5 mph82%30.15 "Hg6 mi
7:00 AM46 °FOvercast.7 mph82%30.12 "Hg6 mi
6:00 AM46 °FCool.5 mph82%30.12 "HgN/A
5:00 AM46 °FCool.5 mph83%30.12 "HgN/A
4:00 AM46 °FCool.5 mph83%30.11 "HgN/A
3:00 AM46 °FCool.3 mph83%30.11 "HgN/A
Weather by CustomWeather, © 2014

See weather overviewHow to use our weather pages